User: anonymous
Location: Unspecified
(0.0000°N, 0.0000°E)
Time: 13:00:15
(UTC+00:00)
Language:

RAX-2 - Orbit

View from above orbital plane
View from above orbital plane
View from above satellite
View from above satellite

Ground track
Ground track

The orbit data is extracted from the following two-line orbital elements,

1 37853U 11061D   14204.75897802  .00000685  00000-0  56459-4 0  8678
2 37853 101.7117 251.8570 0215100 310.9643 162.1288 14.89804889148100
Epoch (UTC): 23 July 2014 18:12:55
Eccentricity: 0.0215100
inclination: 101.7117°
perigee height: 448 km
apogee height: 748 km
right ascension of ascending node: 251.8570°
argument of perigee: 310.9643°
revolutions per day: 14.89804889
mean anomaly at epoch: 162.1288°
orbit number at epoch: 14810

The dashed part of the orbit path shows where the satellite is in the earth's shadow,  

DLR